Location: Grambois
(43.7619°N, 5.5873°E)
Time: 11:56:02
(UTC+00:00)

BREEZE-M DEB (TANK) - Pass Details

Date: 07 October 2020
Orbit: 333 x 12040 km, 49.7° (Epoch: 26 October)

Event Time Altitude Azimuth Distance (km) Brightness Sun altitude
Rises 03:02:33 0° 197° (SSW) 13,692 8.8 -29.2°
Reaches altitude 10° 03:13:36 10° 195° (SSW) 13,902 8.9 -27.3°
Maximum altitude 04:48:48 70° 129° (SE) 9,872 8.5 -10.5°
Drops below altitude 10° 05:27:19 10° 59° (ENE) 7,431 8.8 -3.6°
Sets 05:30:53 0° 57° (ENE) 7,667 8.9 -2.9°
